[[{"header":{"parameterUnit":"m.s-1","parameterCategory":1,"la1":30.2991,"la2":30.254,"lo1":-89.0895,"lo2":-89.0444,"dy":0.0017,"dx":0.0017,"nx":28,"ny":28,"refTime":"2025-02-27T09:00:00:Z","depth":0,"parameterNumber":2,"parameterNumberName":"U-component_of_WINDS"},"data":[0,0,0,0,0,0,0,0,0,0,0,0,0,0,0,0,0,0,0,0,0,0,0,0,0,0,0,0,0,0,0,0,0,0,0,0,0,0,0,0,0,0,0,0,0,0,0,0,0,0,0,0,0,0,0,0,0,0,-0.7671,-0.7671,0,-0.7651,-0.765,-0.765,-0.7632,-0.7631,-0.7631,-0.7631,-0.7611,-0.7611,-0.7611,0,0,0,0,0,0,0,0,0,0,0,0,0,-0.7695,-0.7695,-0.7671,-0.7671,-0.7671,-0.7651,-0.765,-0.765,-0.7632,-0.7631,-0.7631,-0.7631,-0.7611,-0.7611,-0.7611,0,0,0,0,0,0,0,0,0,0,0,0,0,-0.7681,-0.7695,-0.7671,-0.7659,-0.7658,-0.7651,-0.765,-0.765,-0.7632,-0.7631,-0.7631,-0.7631,-0.7612,-0.7611,-0.7611,-0.7615,0,0,-0.7609,-0.7609,0,0,0,0,0,0,0,0,-0.7682,-0.768,-0.7661,-0.766,-0.7658,-0.7643,-0.7652,-0.7638,-0.7632,-0.7642,-0.7631,-0.7631,-0.7622,-0.7621,-0.7618,-0.7614,-0.7613,-0.7609,-0.7609,-0.7609,-0.7609,0,0,0,0,0,0,0,-0.7683,-0.7681,-0.7663,-0.7661,-0.7659,-0.7655,-0.7652,-0.7649,-0.7634,-0.7641,-0.7639,-0.7637,-0.7622,-0.7618,-0.7617,-0.7613,-0.7609,-0.7609,-0.7608,-0.7608,-0.7612,-0.7612,0,0,0,0,0,0,-0.7685,-0.7682,-0.7664,-0.7662,-0.7669,-0.7655,-0.7652,-0.7648,-0.7634,-0.7632,-0.7637,-0.7636,-0.7619,-0.7618,-0.7617,-0.7621,-0.7609,-0.7608,-0.7608,-0.7611,-0.7612,-0.7612,0,0,0,0,0,0,-0.7686,-0.7684,-0.7664,-0.7672,-0.7669,-0.7655,-0.7651,-0.7648,-0.7645,-0.7632,-0.7629,-0.7637,-0.7619,-0.7617,-0.7615,-0.762,-0.7608,-0.7608,-0.7611,-0.7611,-0.7612,-0.763,0,0,0,0,0,0,-0.7687,-0.7684,-0.7685,-0.7672,-0.7668,-0.7663,-0.7651,-0.7648,-0.7644,-0.7643,-0.763,-0.7628,-0.7619,-0.7616,-0.7615,-0.7619,-0.7607,-0.761,-0.7611,-0.7612,-0.7629,-0.7631,-0.7633,0,0,0,0,0,-0.7688,-0.7691,-0.7685,-0.7683,-0.7669,-0.7664,-0.7662,-0.765,-0.7645,-0.7646,-0.7637,-0.7629,-0.762,-0.7616,-0.7615,-0.7619,-0.761,-0.7611,-0.7612,-0.7628,-0.7631,-0.7633,0,0,0,0,0,0,-0.7706,-0.7689,-0.7683,-0.7682,-0.7674,-0.766,-0.7662,-0.7654,-0.7648,-0.7647,-0.7633,-0.763,-0.763,-0.7624,-0.7621,-0.7623,-0.7614,-0.7614,-0.7627,-0.7629,-0.7631,-0.7633,-0.7607,0,0,0,0,0,-0.771,-0.7706,-0.7692,-0.7693,-0.7689,-0.7676,-0.7673,-0.7665,-0.7657,-0.7654,-0.7645,-0.7638,-0.7633,-0.7631,-0.7626,-0.7628,-0.7625,-0.763,-0.7632,-0.7634,-0.7635,-0.7636,-0.7638,-0.7615,-0.7615,-0.7615,0,0,-0.7718,-0.7708,-0.7707,-0.7696,-0.7689,-0.7686,-0.7674,-0.7671,-0.7669,-0.7653,-0.7651,-0.7645,-0.7635,-0.7636,-0.7636,-0.7631,-0.7641,-0.7635,-0.7636,-0.7636,-0.7637,-0.764,-0.7642,-0.7615,-0.7615,-0.7615,0,0,-0.7732,-0.7724,-0.7724,-0.7717,-0.7707,-0.7698,-0.7698,-0.7686,-0.7681,-0.7678,-0.7667,-0.7664,-0.7657,-0.7651,-0.7647,-0.7659,-0.7651,-0.7658,-0.7669,-0.7671,-0.7672,-0.7674,-0.7679,-0.7681,-0.7659,-0.7659,-0.7659,0,-0.7743,-0.7738,-0.7725,-0.7723,-0.7719,-0.7705,-0.7705,-0.7699,-0.7688,-0.7686,-0.7681,-0.7671,-0.7664,-0.7664,-0.7667,-0.7663,-0.7664,-0.766,-0.7673,-0.7675,-0.7676,-0.7681,-0.7683,-0.766,-0.7659,-0.7659,-0.7659,0,-0.7753,-0.775,-0.7751,-0.7741,-0.7737,-0.7736,-0.7724,-0.7721,-0.7713,-0.7706,-0.7704,-0.7695,-0.7688,-0.7687,-0.7679,-0.7685,-0.7683,-0.7675,-0.7667,-0.7679,-0.7684,-0.7686,-0.7661,-0.7661,-0.766,-0.766,0,0,-0.7779,-0.7761,-0.7762,-0.7757,-0.7745,-0.7742,-0.7741,-0.7734,-0.7733,-0.7726,-0.7725,-0.7719,-0.7712,-0.7708,-0.77,-0.7701,-0.7712,-0.7693,-0.7693,-0.7698,-0.772,-0.7727,-0.7729,-0.7706,-0.7707,-0.7707,-0.7721,0,-0.7791,-0.7788,-0.7777,-0.7777,-0.7774,-0.7761,-0.776,-0.7753,-0.7745,-0.7742,-0.7734,-0.773,-0.7721,-0.7718,-0.7719,-0.7711,-0.7717,-0.7709,-0.7707,-0.7707,-0.7711,-0.7731,-0.7738,-0.7752,-0.7722,-0.7723,-0.7723,0,-0.7805,-0.7799,-0.78,-0.7788,-0.7786,-0.7786,-0.7779,-0.7776,-0.7768,-0.7762,-0.7758,-0.7748,-0.7747,-0.7738,-0.7736,-0.7732,-0.773,-0.7726,-0.7726,-0.7726,-0.7717,-0.7733,-0.7756,-0.7758,-0.7725,-0.7725,-0.7725,0,-0.7825,-0.7817,-0.7816,-0.7813,-0.7799,-0.7799,-0.7793,-0.7784,-0.7781,-0.7775,-0.7774,-0.7768,-0.7765,-0.7761,-0.775,-0.7744,-0.7751,-0.774,-0.7747,-0.7747,-0.775,-0.775,-0.7774,-0.7747,-0.7747,-0.7746,-0.7746,0,-0.7841,-0.7842,-0.7825,-0.7825,-0.7826,-0.7813,-0.7814,-0.7807,-0.78,-0.7798,-0.7786,-0.7785,-0.777,-0.7768,-0.776,-0.7761,-0.7759,-0.7755,-0.7753,-0.7757,-0.7758,-0.7757,-0.7756,-0.7747,-0.7747,-0.7747,-0.7747,0,-0.7864,-0.7852,-0.7851,-0.7838,-0.7835,-0.7836,-0.7825,-0.7825,-0.7817,-0.7815,-0.7814,-0.7801,-0.7798,-0.7787,-0.778,-0.7775,-0.7779,-0.7774,-0.7782,-0.7781,-0.7789,-0.7789,-0.7813,-0.7817,-0.7786,-0.7787,-0.7787,0,-0.7876,-0.7876,-0.7863,-0.7861,-0.7856,-0.7853,-0.785,-0.7837,-0.7834,-0.7825,-0.7826,-0.7822,-0.7817,-0.7813,-0.7803,-0.7799,-0.7795,-0.7804,-0.7794,-0.7798,-0.7796,-0.7797,-0.7798,-0.7806,-0.7807,-0.7807,-0.7807,0,-0.7898,-0.7892,-0.7888,-0.7882,-0.7878,-0.7873,-0.7867,-0.7866,-0.7852,-0.785,-0.7846,-0.7843,-0.7836,-0.7833,-0.7827,-0.7821,-0.7812,-0.781,-0.7812,-0.7816,-0.7821,-0.782,-0.7789,-0.781,-0.781,-0.7809,-0.7809,-0.7809,-0.7916,-0.7916,-0.7908,-0.7904,-0.7898,-0.7892,-0.7892,-0.7883,-0.788,-0.7874,-0.7866,-0.7864,-0.7856,-0.7847,-0.7842,-0.784,-0.7835,-0.7837,-0.7838,-0.7839,-0.7842,-0.782,-0.7839,-0.7839,-0.7839,-0.7839,-0.7839,0,-0.7939,-0.7932,-0.7929,-0.7921,-0.7918,-0.7909,-0.7902,-0.79,-0.7898,-0.7891,-0.7888,-0.7884,-0.788,-0.787,-0.7866,-0.7867,-0.7862,-0.7866,-0.7867,-0.7866,-0.7846,-0.7845,-0.7869,-0.7869,-0.7869,-0.7869,-0.7869,-0.7869,-0.795,-0.7951,-0.7944,-0.7942,-0.7935,-0.7933,-0.793,-0.7925,-0.792,-0.7916,-0.7913,-0.7906,-0.7899,-0.7893,-0.789,-0.7887,-0.7887,-0.7892,-0.7888,-0.787,-0.7867,-0.7864,-0.7864,-0.7892,-0.7892,-0.7908,-0.7909,-0.7909]},{"header":{"parameterUnit":"m.s-1","parameterCategory":1,"la1":30.2991,"la2":30.254,"lo1":-89.0895,"lo2":-89.0444,"dy":0.0017,"dx":0.0017,"nx":28,"ny":28,"refTime":"2025-02-27T09:00:00:Z","depth":0,"parameterNumber":3,"parameterNumberName":"V-component_of_WINDS"},"data":[0,0,0,0,0,0,0,0,0,0,0,0,0,0,0,0,0,0,0,0,0,0,0,0,0,0,0,0,0,0,0,0,0,0,0,0,0,0,0,0,0,0,0,0,0,0,0,0,0,0,0,0,0,0,0,0,0,0,-1.3981,-1.3982,0,-1.4004,-1.4004,-1.4004,-1.3988,-1.3987,-1.3986,-1.3986,-1.4007,-1.4008,-1.401,0,0,0,0,0,0,0,0,0,0,0,0,0,-1.3923,-1.3924,-1.3981,-1.3982,-1.3982,-1.4004,-1.4004,-1.4004,-1.3988,-1.3987,-1.3986,-1.3985,-1.4007,-1.4008,-1.401,0,0,0,0,0,0,0,0,0,0,0,0,0,-1.3947,-1.3924,-1.3981,-1.3976,-1.3976,-1.4004,-1.4004,-1.4005,-1.3988,-1.3987,-1.3986,-1.3985,-1.4006,-1.4008,-1.401,-1.4043,0,0,-1.4015,-1.4016,0,0,0,0,0,0,0,0,-1.3946,-1.3949,-1.3977,-1.3977,-1.3977,-1.3992,-1.3991,-1.4017,-1.3989,-1.3984,-1.3986,-1.3985,-1.4003,-1.4005,-1.4011,-1.4044,-1.4045,-1.4016,-1.4017,-1.4018,-1.4018,0,0,0,0,0,0,0,-1.3944,-1.3948,-1.399,-1.3977,-1.3977,-1.3973,-1.3975,-1.3996,-1.3999,-1.3984,-1.3983,-1.3986,-1.4003,-1.401,-1.4012,-1.4045,-1.4016,-1.4017,-1.4018,-1.4019,-1.4107,-1.4108,0,0,0,0,0,0,-1.3943,-1.3947,-1.399,-1.3991,-1.3958,-1.3975,-1.3977,-1.3988,-1.3999,-1.3999,-1.3987,-1.3985,-1.4007,-1.401,-1.4012,-1.4053,-1.4018,-1.4019,-1.402,-1.4105,-1.4107,-1.4108,0,0,0,0,0,0,-1.3942,-1.3947,-1.3989,-1.3969,-1.3974,-1.3977,-1.3989,-1.3989,-1.3996,-1.4001,-1.4001,-1.3994,-1.4006,-1.401,-1.4036,-1.4053,-1.402,-1.4022,-1.4104,-1.4106,-1.4107,-1.4133,0,0,0,0,0,0,-1.394,-1.3947,-1.396,-1.3969,-1.3975,-1.4012,-1.399,-1.399,-1.4,-1.3998,-1.4007,-1.4008,-1.4006,-1.4033,-1.4038,-1.4055,-1.4023,-1.4102,-1.4105,-1.4107,-1.4131,-1.4135,-1.4139,0,0,0,0,0,-1.3938,-1.3965,-1.396,-1.3966,-1.3991,-1.4013,-1.4016,-1.4014,-1.4001,-1.4014,-1.4017,-1.4008,-1.405,-1.4036,-1.4041,-1.4059,-1.4101,-1.4104,-1.4107,-1.4129,-1.4134,-1.4139,0,0,0,0,0,0,-1.3957,-1.3966,-1.3961,-1.3992,-1.4002,-1.401,-1.4026,-1.402,-1.4033,-1.4031,-1.4026,-1.4029,-1.4056,-1.406,-1.4044,-1.4092,-1.4074,-1.4078,-1.4089,-1.4094,-1.4099,-1.4097,-1.4025,0,0,0,0,0,-1.3965,-1.3982,-1.3989,-1.4016,-1.4021,-1.4023,-1.4033,-1.403,-1.404,-1.4044,-1.4048,-1.4058,-1.4074,-1.4084,-1.4099,-1.4131,-1.4133,-1.4146,-1.415,-1.4154,-1.4158,-1.4176,-1.4182,-1.4117,-1.4117,-1.4117,0,0,-1.3981,-1.3988,-1.3999,-1.402,-1.4027,-1.4046,-1.4027,-1.4046,-1.406,-1.4046,-1.4072,-1.4076,-1.4086,-1.4115,-1.4128,-1.4119,-1.4176,-1.4157,-1.416,-1.4162,-1.4179,-1.4185,-1.4191,-1.4119,-1.4119,-1.4118,0,0,-1.402,-1.4027,-1.4051,-1.4059,-1.407,-1.4071,-1.4077,-1.4087,-1.4089,-1.4114,-1.4105,-1.412,-1.4147,-1.4155,-1.4163,-1.4206,-1.4198,-1.421,-1.4234,-1.4252,-1.4257,-1.4261,-1.4277,-1.4283,-1.4214,-1.4214,-1.4214,0,-1.4038,-1.4066,-1.4063,-1.4084,-1.4094,-1.4083,-1.4107,-1.4114,-1.413,-1.4137,-1.4126,-1.4161,-1.4167,-1.4198,-1.4209,-1.4215,-1.4222,-1.4209,-1.4256,-1.4261,-1.4265,-1.428,-1.4286,-1.4215,-1.4215,-1.4215,-1.4215,0,-1.4088,-1.4108,-1.4125,-1.4142,-1.4153,-1.4175,-1.4176,-1.4187,-1.4184,-1.4186,-1.4212,-1.4219,-1.4235,-1.4242,-1.4238,-1.4274,-1.4268,-1.4257,-1.4239,-1.4273,-1.4287,-1.4293,-1.4217,-1.4217,-1.4216,-1.4216,0,0,-1.414,-1.4155,-1.4162,-1.417,-1.4182,-1.4197,-1.4218,-1.4235,-1.4245,-1.4256,-1.4275,-1.4298,-1.4288,-1.4297,-1.4294,-1.4309,-1.4344,-1.4297,-1.4297,-1.4306,-1.4384,-1.4393,-1.44,-1.4338,-1.4339,-1.434,-1.4383,0,-1.418,-1.4219,-1.4218,-1.4254,-1.4272,-1.4262,-1.4281,-1.4291,-1.4293,-1.4308,-1.4311,-1.4328,-1.4313,-1.4319,-1.4334,-1.4337,-1.436,-1.4333,-1.4356,-1.4356,-1.4354,-1.4407,-1.4416,-1.4456,-1.4389,-1.439,-1.439,0,-1.4233,-1.4247,-1.4285,-1.4296,-1.4303,-1.432,-1.4336,-1.4351,-1.4361,-1.4362,-1.4372,-1.4367,-1.4388,-1.4369,-1.4399,-1.4382,-1.439,-1.4393,-1.4395,-1.4397,-1.4376,-1.4412,-1.4469,-1.4476,-1.4399,-1.4398,-1.4398,0,-1.4268,-1.4296,-1.4323,-1.433,-1.4342,-1.4355,-1.4361,-1.437,-1.4381,-1.4394,-1.4401,-1.4416,-1.4424,-1.4436,-1.4435,-1.4421,-1.4466,-1.4446,-1.4467,-1.4468,-1.4478,-1.4477,-1.4538,-1.4482,-1.4482,-1.4482,-1.4482,0,-1.4313,-1.4337,-1.4339,-1.4355,-1.4382,-1.438,-1.4406,-1.441,-1.4419,-1.4436,-1.4428,-1.4444,-1.4441,-1.4457,-1.4456,-1.4482,-1.4485,-1.4487,-1.4486,-1.4488,-1.4488,-1.4494,-1.4492,-1.4484,-1.4483,-1.4483,-1.4483,0,-1.4357,-1.4359,-1.4388,-1.4398,-1.4401,-1.442,-1.4429,-1.4444,-1.4446,-1.4468,-1.4473,-1.4476,-1.4494,-1.4494,-1.4515,-1.4514,-1.4546,-1.4542,-1.4543,-1.4542,-1.4564,-1.4562,-1.4632,-1.4641,-1.4578,-1.4579,-1.4579,0,-1.4387,-1.4405,-1.4418,-1.4429,-1.4436,-1.4454,-1.4465,-1.4463,-1.4475,-1.4489,-1.4503,-1.452,-1.4535,-1.4565,-1.4569,-1.4584,-1.4581,-1.4604,-1.4584,-1.4585,-1.4583,-1.4582,-1.4584,-1.4609,-1.461,-1.461,-1.4611,0,-1.4439,-1.4439,-1.4456,-1.4473,-1.4487,-1.45,-1.4512,-1.4521,-1.4521,-1.4534,-1.4553,-1.4565,-1.4586,-1.4604,-1.462,-1.4625,-1.4618,-1.4617,-1.4623,-1.4625,-1.4626,-1.4627,-1.4555,-1.4616,-1.4615,-1.4615,-1.4614,-1.4614,-1.4477,-1.4494,-1.4505,-1.4524,-1.4533,-1.4545,-1.4561,-1.4565,-1.4581,-1.46,-1.4597,-1.4619,-1.4629,-1.465,-1.4656,-1.4673,-1.4665,-1.4673,-1.4675,-1.4678,-1.4681,-1.4622,-1.4676,-1.4676,-1.4675,-1.4675,-1.4675,0,-1.453,-1.4538,-1.4555,-1.4573,-1.4588,-1.458,-1.4593,-1.4606,-1.4625,-1.4636,-1.4651,-1.4673,-1.4691,-1.4696,-1.4713,-1.4725,-1.4723,-1.473,-1.4729,-1.4731,-1.4687,-1.468,-1.4732,-1.4732,-1.4732,-1.4732,-1.4732,-1.4732,-1.456,-1.4588,-1.4589,-1.4621,-1.4628,-1.465,-1.4658,-1.4669,-1.4678,-1.4704,-1.4719,-1.4722,-1.4731,-1.4748,-1.4764,-1.4765,-1.4772,-1.4781,-1.4781,-1.474,-1.4734,-1.4729,-1.4723,-1.4783,-1.4783,-1.4824,-1.4825,-1.4825]}]]